Regional Weather Roundup
Issued by NWS Goodland, KS

Home | Current Version | Previous Version | Text Only | Print | Product List | Glossary Off
Versions: 1 2 3 4 5 6 7 8 9 10 11 12 13 14 15 16 17 18 19 20 21 22 23 24 25 26 27 28 29 30 31 32 33 34 35 36 37 38 39 40 41 42 43 44 45 46 47 48 49 50

000
ASUS43 KGLD 222159
RWRGLD

GOODLAND FORECAST AREA HOURLY WEATHER ROUNDUP
NATIONAL WEATHER SERVICE GOODLAND KS
400 PM MDT WED MAR 22 2017

...OFFICIAL OBSERVATIONS...

CITY           SKY/WX    TMP DP  RH WIND       PRES   REMARKS
GOODLAND KS    CLOUDY    59  37  44 S21       29.97F
HILL CITY KS   CLOUDY    52  32  46 S17G23    30.08F
IMPERIAL NEB   SUNNY     59  34  39 S23G31    29.96F
MCCOOK NEB     CLOUDY    54  33  45 SE18G25   30.02F
AKRON CO       SUNNY     71  36  27 SE20      29.87F
BURLINGTON CO  CLOUDY    63  38  39 S28G36    29.94F
LIMON CO       CLOUDY    64  36  35 SE18G28   29.92F
$$

...UNOFFICIAL OBSERVATIONS...

CITY           SKY/WX    TMP DP  RH WIND       PRES   REMARKS
LENORA KS        N/A     51  32  48 SE13        N/A
NORTON KS      CLOUDY    54  27  35 SE14G22   30.05F
SHARON SPRINGS   N/A     61  41  47 SE22        N/A
TRENTON NEB      N/A     56  32  40 S14         N/A
YUMA CO        FAIR      64  34  32 SE21G28   29.89F
$$




USA.gov is the U.S. government's official web portal to all federal, state and local government web resources and services.